Location: *
(41.0833°N, 73.4167°W)
Time: 16:54:24
(UTC+00:00)

Cosmos 2237 Rocket - Pass Details

Date: 22 October 2019
Orbit: 833 x 851 km, 71.0° (Epoch: 20 November)

Event Time Altitude Azimuth Distance (km) Brightness Sun altitude
Exits shadow 07:39:28 24° 65° (ENE) 1,687 4.2 -40.2°
Drops below altitude 10° 07:42:14 10° 43° (NE) 2,481 5.2 -39.7°
Sets 07:44:55 0° 34° (NNE) 3,422 6.0 -39.3°
